(18) Melpomene
ephemeris date magn radius delta ra dec elong phase
Today18 Jul 202511.92.789 AU2.964 AU12h32m+05°05'70.2°20.1°
Opposition8 Jul 20268.92.208 AU1.206 AU19h04m-09°27'166.9°6.0°
(18) Melpomene - 2025-07-18
astro.vanbuitenen.nl


 
-1 year
-1 month
-1 day
Now
+1 day
+1 month
+1 year

The interactive orbit chart above shows the body's path through the solar system and its position at the given date. Green and blue lines are shown perpendicular to the ecliptic plane: Green if the path is above the ecliptic plane, blue if it is below. (Left-click and drag to rotate the view; Right-click and drag to move the view; Use scroll wheel to zoom in our out.)

The orbital elements of Melpomene are:

            e (Eccentricity)                : 0.2181123
            a (Semimajor axis)              : 2.2952637
            i (Inclination)                 : 10.13133
            Ω (Longitude of ascending node) : 150.33418
            ω (Argument of perihelion)      : 228.05743
            M (Mean anomaly)                : 170.57139
            Epoch                           : 2025 May 05

            L (Longitude of perihelion)     : 197.94359
            B (Latitude of perihelion)      : -7.51818
            P (Orbital period in years)     : 3.48            
        

The light curve chart below shows the estimated development of the minor planet's magnitude.


The all-sky chart below shows the path of the minor planet over the same period as the light curve. The current position is marked yellow.





The following chart shows the path of the minor planet in the next few days. The field of view is optimized for (~10x50) binoculars and finderscopes. A more printer-friendly version of the same chart can be found below.




Ephemerides:
Date       Time       RA (2000)    DEC (2000)    delta   radius  elong  phase   PA    magn
2025-07-18 00:00 UT   12 32 00.7   +05 05 48     2.964    2.789   70.2   20.1   111   11.9 
2025-07-18 23:46 UT   12 32 59.5   +04 58 25     2.976    2.789   69.6   20.0   110   11.9 
2025-07-19 00:00 UT   12 33 00.1   +04 58 21     2.976    2.789   69.6   20.0   110   11.9 
2025-07-20 00:00 UT   12 34 00.1   +04 50 51     2.988    2.788   68.9   19.9   110   11.9 
2025-07-21 00:00 UT   12 35 00.6   +04 43 18     3.000    2.788   68.2   19.8   110   12.0 
2025-07-22 00:00 UT   12 36 01.8   +04 35 42     3.012    2.788   67.6   19.7   110   12.0 
2025-07-23 00:00 UT   12 37 03.5   +04 28 04     3.025    2.787   66.9   19.6   110   12.0 
2025-07-24 00:00 UT   12 38 05.8   +04 20 23     3.036    2.787   66.2   19.5   110   12.0 
2025-07-25 00:00 UT   12 39 08.7   +04 12 40     3.048    2.786   65.6   19.4   110   12.0 
2025-07-26 00:00 UT   12 40 12.1   +04 04 54     3.060    2.786   64.9   19.3   110   12.0 
2025-07-27 00:00 UT   12 41 16.0   +03 57 06     3.072    2.786   64.3   19.2   110   12.0 
2025-07-28 00:00 UT   12 42 20.5   +03 49 15     3.083    2.785   63.6   19.1   109   12.0 
2025-07-29 00:00 UT   12 43 25.5   +03 41 23     3.095    2.785   63.0   19.0   109   12.0 
2025-07-30 00:00 UT   12 44 31.1   +03 33 28     3.106    2.784   62.3   18.8   109   12.0 
2025-07-31 00:00 UT   12 45 37.1   +03 25 31     3.118    2.784   61.7   18.7   109   12.0 
2025-08-01 00:00 UT   12 46 43.7   +03 17 32     3.129    2.784   61.1   18.6   109   12.0 
2025-08-02 00:00 UT   12 47 50.7   +03 09 32     3.140    2.783   60.4   18.5   109   12.0 
2025-08-03 00:00 UT   12 48 58.3   +03 01 29     3.152    2.783   59.8   18.4   109   12.0 
2025-08-04 00:00 UT   12 50 06.3   +02 53 25     3.163    2.782   59.2   18.2   108   12.0 
2025-08-05 00:00 UT   12 51 14.8   +02 45 19     3.173    2.782   58.5   18.1   108   12.0 
2025-08-06 00:00 UT   12 52 23.7   +02 37 11     3.184    2.781   57.9   18.0   108   12.0 
2025-08-07 00:00 UT   12 53 33.2   +02 29 02     3.195    2.781   57.3   17.9   108   12.0 
2025-08-08 00:00 UT   12 54 43.0   +02 20 51     3.206    2.780   56.6   17.7   108   12.0 
2025-08-09 00:00 UT   12 55 53.4   +02 12 39     3.216    2.780   56.0   17.6   108   12.0 
2025-08-10 00:00 UT   12 57 04.1   +02 04 26     3.227    2.779   55.4   17.5   108   12.0 
2025-08-11 00:00 UT   12 58 15.4   +01 56 11     3.237    2.779   54.8   17.3   107   12.0 
2025-08-12 00:00 UT   12 59 27.0   +01 47 55     3.248    2.778   54.1   17.2   107   12.0 
2025-08-13 00:00 UT   13 00 39.1   +01 39 38     3.258    2.778   53.5   17.1   107   12.0 
2025-08-14 00:00 UT   13 01 51.6   +01 31 19     3.268    2.777   52.9   16.9   107   12.0 


    Terminology:
            
    delta:  distance between minor planet and earth in AU
    radius: distance between minor planet and sun in AU
    magn:   magnitude (brightness) estimate    
    ra:     right ascension in hours (24h = 360deg)
    dec:    declination in degrees
    elong:  elongation in degrees (angle sun-earth-minor planet)    
    phase:  phase angle in degrees (angle sun-minor planet-earth)        
    AU:     Astronomical Unit (mean distance between earth and sun: 149597870.7 km
    

Orbital elements provided by the MPC (Minor Planet Center).
Calculations by a modified version of AAPlus, a C# implementation of the AA+ project by PJ Naughter from the algorithms presented in the book "Astronomical Algorithms" by Jean Meeus.
NGC2000 dso catalog and star labels from VizieR as provided by the Strasbourg astronomical Data Center.
Tycho2 catalog from the ESO archive.